This demonstration page uses our WeatherBlox Daily Observations layout. Learn more.

Left ArrowRight Arrow

44.8408, -93.29828

Hourly Observations for October 9, 2021

Temp ( °F °C ) Dew Point ( °F °C ) Humidity (%) Winds ( mph kmh ) Pressure ( in mb ) Visibility ( mi km ) Precip ( " mm )
12:53 am 00:53 Mostly Cloudy 64 17.8 61 16.1 90 90 SE 7 11 29.90 1012 10 16 N/A
1:53 am 01:53 Mostly Clear 63 17.2 61 16.1 93 93 SE 6 9 29.88 1012 10 16 N/A
2:53 am 02:53 Mostly Clear 62 16.7 60 15.6 93 93 SE 5 7 29.87 1012 10 16 N/A
3:53 am 03:53 Mostly Clear 62 16.7 60 15.6 93 93 SE 5 7 29.85 1011 10 16 N/A
4:53 am 04:53 Clear 62 16.7 60 15.6 93 93 SE 7 11 29.83 1010 10 16 N/A
5:53 am 05:53 Clear 62 16.7 60 15.6 93 93 SE 8 13 29.83 1010 10 16 N/A
6:53 am 06:53 Mostly Clear 62 16.7 60 15.6 93 93 SE 7 11 29.83 1010 10 16 N/A
7:53 am 07:53 Partly Cloudy 62 16.7 60 15.6 93 93 SE 7 11 29.83 1010 7 11 N/A
8:53 am 08:53 Mostly Sunny 63 17.2 60 15.6 90 90 ESE 8 13 29.83 1010 8 13 N/A
9:53 am 09:53 Mostly Sunny 67 19.4 60 15.6 79 79 SSE 9 15 29.82 1010 10 16 N/A
10:53 am 10:53 Partly Cloudy 72 22.2 61 16.1 68 68 SE 8 13 29.81 1009 10 16 N/A
11:53 am 11:53 Partly Cloudy 76 24.4 61 16.1 60 60 VRB 7 11 29.79 1009 10 16 N/A
12:53 pm 12:53 Mostly Cloudy 77 25 62 16.7 60 60 SE 10 17 29.75 1008 10 16 N/A
1:53 pm 13:53 Mostly Cloudy 78 25.6 63 17.2 60 60 ESE 14 22 29.72 1007 10 16 N/A
2:53 pm 14:53 Mostly Cloudy 78 25.6 63 17.2 60 60 ESE 13 20 29.72 1006 10 16 N/A
3:53 pm 15:53 Mostly Cloudy 76 24.4 63 17.2 64 64 E 13 20 29.68 1005 10 16 N/A
4:53 pm 16:53 Cloudy 75 23.9 62 16.7 64 64 ESE 16 26 29.66 1004 10 16 N/A
5:53 pm 17:53 Mostly Cloudy 74 23.3 62 16.7 67 67 ESE 18 30 29.64 1004 10 16 N/A
6:53 pm 18:53 Cloudy 73 22.8 61 16.1 66 66 ESE 20 31 29.62 1003 10 16 N/A
7:53 pm 19:53 Cloudy 73 22.8 62 16.7 69 69 ESE 21 33 29.60 1002 10 16 0.00 0.00
8:53 pm 20:53 Cloudy with Light Rain 73 22.8 62 16.7 69 69 SE 15 24 29.60 1002 10 16 0.00 0.00
9:53 pm 21:53 Mostly Cloudy 72 22.2 61 16.1 68 68 SE 15 24 29.57 1001 10 16 0.00 0.00
10:53 pm 22:53 Cloudy 72 22.2 61 16.1 68 68 SE 16 26 29.55 1001 10 16 0.00 0.00
11:53 pm 23:53 Cloudy with Light Rain 71 21.7 61 16.1 71 71 SE 15 24 29.53 1000 10 16 0.00 0.00

Powered by AerisWeather